Location: *
(0.7700°N, 162.7770°E)
Time: 11:27:56
(UTC+00:00)

Daily predictions for brighter satellites

Satellite Brightness Start Highest point End
(mag) Time Altitude Azimuth Time Altitude Azimuth Time Altitude Azimuth
Ariane H10+ 3.9 16:15:56 45° ESE 16:15:56 45° ESE 16:26:46 10° E
ATLAS 3B R/B 3.8 16:38:36 37° SE 16:39:59 40° ESE 16:46:39 10° NE
Mugunghwa Rocket 4.3 16:47:35 67° ENE 16:47:35 67° ENE 16:54:13 10° ESE
ARIANE 5 R/B 4.3 16:52:05 39° SE 16:52:05 39° SE 16:59:02 10° E
Centaur D-1AR AC-39 2.7 16:51:27 78° ENE 16:51:27 78° ENE 17:06:18 10° ESE
MAQSAT/ARIANE V 4.5 17:00:20 15° ENE 17:00:20 15° ENE 17:01:18 10° ENE
Cosmos 2344 3.6 17:03:04 66° WSW 17:04:12 75° WNW 17:11:49 10° NNE
Meteor 1-24 Rocket 4.4 17:02:53 10° N 17:08:02 49° E 17:13:21 10° SSE
Cosmos 2026 Rocket 3.8 17:17:16 52° S 17:18:51 89° E 17:24:55 10° N
Cosmos 1674 4.4 17:19:03 10° NNE 17:22:21 31° E 17:24:43 16° SE
ATLAS CENTAUR R/B 2.7 17:25:39 10° N 17:30:22 48° ENE 17:35:02 10° SE
Cosmos 2369 Rocket 3.1 17:25:49 10° N 17:31:12 49° ENE 17:36:38 10° SSE
Lacrosse 5 rocket 3.0 17:38:01 24° S 17:38:01 24° S 17:39:53 10° SSE
SWIFT 3.6 17:34:39 28° NNW 17:36:08 37° NNE 17:40:05 10° E
Okean O Rocket 1.8 17:33:01 10° N 17:36:48 53° NW 17:36:48 53° NW
Cosmos 1470 4.1 17:39:16 27° NNW 17:39:16 27° NNW 17:41:14 10° N
BLOCK DM-SL R/B 2.8 17:36:48 59° WSW 17:37:35 82° S 17:44:10 10° E
ARIANE 5 R/B 2.4 17:39:36 35° E 17:39:36 35° E 17:40:50 10° E
CZ-4B DEB 4.3 17:33:38 10° N 17:39:01 55° WNW 17:40:14 46° WSW
GPS 2-17 Rocket1 3.8 17:38:16 29° NW 17:40:24 50° NNE 17:44:58 10° E
Cosmos 1867 3.5 17:35:44 10° NW 17:41:01 55° WSW 17:46:17 10° S
Cosmos 1437 3.8 17:41:46 32° SE 17:42:39 41° E 17:45:38 10° NNE
H-10 deb 2.8 17:44:22 25° N 17:44:37 26° N 17:47:01 10° ENE
ARIANE 44L R/B 4.1 17:47:00 24° NW 17:49:26 50° NNE 18:07:35 10° E
ARIANE 5 R/B 3.9 17:47:50 23° WNW 17:50:38 48° N 17:54:00 10° ENE
CZ-4B R/B 3.4 17:46:26 10° N 17:51:54 52° WNW 17:54:44 27° SW
Ariane H10-3 3.1 17:51:44 26° NNW 17:52:33 32° NNE 17:56:56 10° E
NOSS 3-2 (A) 3.3 17:51:04 35° SW 17:53:12 54° WNW 17:58:47 10° N
Cosmos 921 Rocket 3.5 17:53:09 39° W 17:53:15 39° W 17:57:21 10° N
Cosmos 407 Rocket 3.4 17:48:23 10° NNW 17:53:38 68° WSW 17:58:52 10° S
Meteor 1-28 Rocket 3.0 17:50:43 10° S 17:54:25 85° W 17:58:06 10° NNW
Cosmos 1943 Rocket 2.5 17:50:34 10° N 17:56:09 67° ENE 18:01:41 10° SSE
COSMOS 2406 3.6 17:54:54 31° WSW 17:57:03 44° WNW 18:02:30 10° N
CZ-2C R/B 2.3 17:52:45 10° NNE 17:57:36 83° ESE 18:02:18 10° S
Lacrosse 4 Rocket 3.5 17:54:36 10° NW 18:01:49 12° S 18:02:12 10° S
Cosmos 1238 Rocket 3.7 17:53:17 10° NNW 17:59:17 59° W 18:04:23 10° S
Cosmos 1954 Rocket 4.5 17:57:40 10° N 18:02:55 64° ENE 18:08:10 10° SSE
IDEFIX/ARIANE 42P 2.9 17:58:09 10° N 18:03:02 43° WNW 18:06:04 21° SW
Cosmos 1953 4.5 18:09:59 12° WNW 18:09:59 12° WNW 18:10:31 10° NW
Intelsat 5-2 Rocket 4.2 17:55:14 10° WNW 18:09:30 86° SSW 18:13:47 10° ESE
DELTA 2 R/B(2) 2.9 18:11:19 67° NNE 18:11:19 67° NNE 18:12:46 10° NE
ISS -4.0 18:08:22 10° NW 18:11:38 74° SW 18:14:55 10° SSE
Meteor 1-16 Rocket 4.1 18:09:00 10° SSW 18:14:16 63° W 18:19:39 10° N
Cosmos 1484 Rocket 4.4 18:12:17 10° NE 18:15:40 34° E 18:19:03 10° SSE
ASC 2 Rocket 3.8 18:13:25 19° SW 18:15:55 39° SSE 18:19:54 10° E
Cosmos 2266 Rocket 4.1 18:12:13 10° S 18:18:39 87° E 18:25:03 10° N
SJ-12 4.2 18:16:10 10° NNE 18:20:11 69° E 18:24:16 10° S
Meteor 1-21 Rocket 4.4 18:14:45 10° N 18:20:25 81° E 18:26:14 10° S
Okean-O 2.7 18:19:24 10° NNE 18:23:48 80° ESE 18:28:14 10° S
Hubble Space Telescope 3.9 18:23:54 10° NNE 18:24:51 11° NNE 18:25:47 10° NE
Cosmos 614 Rocket 4.0 18:19:49 10° NNW 18:24:51 58° WSW 18:29:57 10° S
Cosmos 676 Rocket 4.1 18:22:11 10° NNW 18:27:21 53° WSW 18:32:32 10° S
Radarsat Rocket 4.1 18:23:10 10° N 18:29:04 69° WNW 18:35:39 10° SSW
ATLAS 3B R/B 3.9 18:25:56 14° WSW 18:30:25 24° WNW 18:35:59 10° NNW
Cosmos 1340 3.3 18:32:52 10° S 18:36:35 58° E 18:40:17 10° NNE
Delta 2 Rocket 4.1 18:33:09 10° SW 18:37:13 53° SE 18:41:50 10° ENE
Cosmos 2082 Rocket 2.6 18:33:12 10° S 18:38:51 70° ESE 18:44:31 10° NNE
NOSS 3-2 (C) 4.1 18:34:22 10° SW 18:39:11 30° WNW 18:44:08 10° N
ERBS 2.4 18:37:25 10° NNW 18:40:45 77° ENE 18:44:06 10° SSE
Skynet4D Del rocket 4.4 18:34:42 10° W 18:41:23 44° SSW 18:47:13 10° SE
USA 161 2.2 18:43:03 10° SSW 18:45:48 34° W 18:48:35 10° NNW
Cosmos 1726 2.8 18:42:10 10° S 18:45:50 59° E 18:49:30 10° NNE
Cosmos 1346 Rocket 3.9 18:45:09 10° SW 18:48:24 25° W 18:51:42 10° NNW
SL-27 R/B 2.5 18:45:11 10° SSW 18:48:44 62° W 18:52:19 10° N
S3M 4.0 18:47:10 10° N 18:53:14 75° W 18:59:21 10° S
CZ-3 R/B 4.0 18:48:46 10° NW 18:58:42 22° N 19:03:06 10° NE
